Regional Weather Roundup
Issued by NWS

Home | Current Version | Previous Version | Text Only | Print | Product List | Glossary On
Versions: 1 2 3 4 5 6 7 8 9 10 11 12 13 14 15 16 17 18 19 20 21 22 23 24 25 26 27 28 29 30 31 32 33 34 35 36 37 38 39 40 41 42 43 44 45 46 47 48 49 50
000
ASUS43 KFSD 301410
RWRSD

WEATHER ROUNDUP FOR SOUTH DAKOTA
NATIONAL WEATHER SERVICE SIOUX FALLS SD
900 AM CDT TUE MAY 30 2017

NOTE: "FAIR" INDICATES FEW OR NO CLOUDS BELOW 12,000 FEET WITH NO
SIGNIFICANT WEATHER AND/OR OBSTRUCTIONS TO VISIBILITY.


SDZ001>005-009-010-012>017-301500-
NORTHWEST AND NORTH CENTRAL SOUTH DAKOTA

CITY           SKY/WX    TMP DP  RH WIND       PRES   REMARKS
BUFFALO          N/A     59  36  42 NW9       30.07R
FAITH            N/A     57  34  41 NW13      30.10S
MOBRIDGE       SUNNY     54  40  59 NW6       30.06R
$$

SDZ012>016-024>037-041>051-057-063-072>074-301500-
SOUTHWEST AND SOUTH CENTRAL SOUTH DAKOTA

CITY           SKY/WX    TMP DP  RH WIND       PRES   REMARKS
RAPID CTY ARPT SUNNY     60  31  33 NW7       30.13S
PIERRE         SUNNY     56  37  49 NW10      30.07S
CUSTER         SUNNY     54  27  35 NW6       30.18S
ELLSWORTH AFB  SUNNY     60  30  32 NW8       30.13S
PHILIP         SUNNY     56  39  53 SW5       30.10S
PINE RIDGE     SUNNY     50  40  68 CALM      30.14S
SPEARFISH      FAIR      57  34  41 W5        30.16S
WINNER         FAIR      59  40  49 W9        30.09S
$$

SDZ004>011-016>023-039-040-301500-
NORTHEAST SOUTH DAKOTA

CITY           SKY/WX    TMP DP  RH WIND       PRES   REMARKS
ABERDEEN       SUNNY     56  38  50 NW18      30.04S
WATERTOWN      SUNNY     53  41  63 NW20      30.00S
BROOKINGS      SUNNY     56  42  59 NW17      30.01S
SISSETON         N/A     52  42  69 NW21      29.98S
$$

SDZ017-020-022-023-036>040-048>070-301500-
SOUTHEAST SOUTH DAKOTA

CITY           SKY/WX    TMP DP  RH WIND       PRES   REMARKS
SIOUX FALLS    MOSUNNY   59  43  55 NW15      30.02S
HURON          SUNNY     57  41  55 NW9       30.04F
CHAMBERLAIN    SUNNY     57  41  53 NW8       30.08R
MITCHELL       SUNNY     59  42  53 N9        30.06S
YANKTON        MOSUNNY   63  45  51 NW15      30.06R
$$

ABBREVIATIONS USED IN REMARKS
   TC - TEMPERATURE IN CELSIUS
  WCI - WIND CHILL INDEX
   HX - HEAT INDEX
  VSB - VISIBILITY




USA.gov is the U.S. government's official web portal to all federal, state and local government web resources and services.